Tracking 25710 objects as of 5-Jul-2022
HD Live streaming from Space Station
objects crossing your sky now

STARLINK-1802

Track STARLINK-1802 now!
10-day predictions
STARLINK-1802 is classified as:


NORAD ID: 46702
Int'l Code: 2020-073AJ
Perigee: 553.0 km
Apogee: 555.8 km
Inclination: 53.1 °
Period: 95.6 minutes
Semi major axis: 6925 km
RCS: Unknown
Launch date: October 18, 2020
Source: United States (US)
Launch site: AIR FORCE EASTERN TEST RANGE (AFETR)
aabbcc
Your satellite tracking list
Your tracking list is empty




NASA's NSSDC Master Catalog

Two Line Element Set (TLE):
1 46702U 20073AJ  22186.11604067 -.00001251  00000-0 -65103-4 0  9995
2 46702  53.0546 133.1667 0002047  60.1634 299.9559 15.06390764 95388
Source of the keplerian elements: AFSPC